Tracking 19846 objects as of 20-Sep-2019
HD Live streaming from Space Station
objects crossing your sky now

COSMOS 977

Track COSMOS 977 now!
10-day predictions
COSMOS 977 is classified as:


NORAD ID: 10584
Int'l Code: 1978-005B
Perigee: 1,406.3 km
Apogee: 1,470.9 km
Inclination: 74.0 °
Period: 114.5 minutes
Semi major axis: 7809 km
RCS: 0.6664 m2 (medium)
Launch date: January 10, 1978
Source: Commonwealth of Independent States (former USSR) (CIS)
Launch site: PLESETSK MISSILE AND SPACE COMPLEX (PKMTR)
aabbcc
Your satellite tracking list
Your tracking list is empty




NASA's NSSDC Master Catalog

Two Line Element Set (TLE):
1 10584U 78005B   19262.39946387 -.00000020  00000-0 -20996-4 0  9991
2 10584  74.0303  61.2454 0041332 260.2806 123.4056 12.57943434914564
Source of the keplerian elements: AFSPC